Location: Boiro
(42.6475°N, 8.8834°W)
Time: 03:55:04
(UTC+01:00)

X-37B - Pass Details

Date: 27 October 2021
Orbit: 330 x 341 km, 45.0° (Epoch: 20 November)

Event Time Altitude Azimuth Distance (km) Brightness Sun altitude
Rises 20:37:29 0° 283° (WNW) 2,126 5.8 -12.1°
Reaches altitude 10° 20:39:40 10° 269° (W) 1,284 4.7 -12.5°
Maximum altitude 20:42:08 25° 211° (SSW) 727 2.4 -12.9°
Drops below altitude 10° 20:44:34 10° 152° (SSE) 1,277 3.0 -13.4°
Enters shadow 20:44:52 - 149° (SSE) 1,386 3.1 -13.4°
